Tekamah, NE

10:41 AM CST on December 05, 2016 (GMT -0600)
Tekamah

Weather History for KTQE - October, 2011

Change the Weather History Date:

Sunday, October 30, 2011

  Actual Average Record
Temperature  
Mean Temperature 47 °F -  
Max Temperature 60 °F 57 °F 82 °F (1990)
Min Temperature 32 °F 35 °F 18 °F (1991)
Degree Days  
Heating Degree Days 18    
Moisture  
Dew Point 28 °F    
Average Humidity 47    
Maximum Humidity 68    
Minimum Humidity 24    
Precipitation  
Precipitation 0.00 in - - ()
Sea Level Pressure  
Sea Level Pressure 29.97 in    
Wind  
Wind Speed 13 mph (NW)    
Max Wind Speed 28 mph    
Max Gust Speed 38 mph    
Visibility 10 miles    
Events      
Averages and records for this station are not official NWS values.
T = Trace of Precipitation, MM = Missing Value Source: NWS Daily Summary

Daily Weather History Graph

Daily Weather History Graph

Search for Another Location

Airport or City:

Trip Planner

Search our weather history database for the weather conditions in past years. The results will help you decide how hot, cold, wet, or windy it might be!

Date:

Astronomy

Oct. 30, 2011 Rise Set
Actual Time 7:54 AM CDT 6:21 PM CDT
Civil Twilight 7:25 AM CDT 6:50 PM CDT
Nautical Twilight 6:52 AM CDT 7:23 PM CDT
Astronomical Twilight 6:20 AM CDT 7:55 PM CDT
Moon 12:16 PM CDT (10/30) 9:49 PM CDT (10/30)
Length of Visible Light 11h 25m
Length of Day
10h 27m
Waxing Crescent, 20% of the Moon is Illuminated
Oct 30
Waxing Crescent
Nov 2
First Quarter
Nov 10
Full
Nov 18
Last Quarter
Nov 25
New

Hourly Weather History & Observations

Time (CDT) Temp. Windchill Dew Point Humidity Pressure Visibility Wind Dir Wind Speed Gust Speed Precip Events Conditions
12:54 AM 46.9 °F - 30.0 °F 52% 29.80 in 10.0 mi WSW 3.5 mph - N/A   Overcast
1:54 AM 46.9 °F - 30.0 °F 52% 29.84 in 10.0 mi NW 3.5 mph - N/A   Clear
2:54 AM 53.1 °F - 32.0 °F 45% 29.85 in 10.0 mi NW 24.2 mph 35.7 mph N/A   Clear
3:54 AM 51.1 °F - 33.1 °F 50% 29.86 in 10.0 mi NW 17.3 mph 24.2 mph N/A   Partly Cloudy
4:54 AM 50.0 °F - 35.1 °F 57% 29.89 in 10.0 mi NW 20.7 mph 31.1 mph N/A   Mostly Cloudy
5:54 AM 46.9 °F - 36.0 °F 66% 29.94 in 10.0 mi NW 16.1 mph - N/A   Clear
6:54 AM 45.0 °F 38.2 °F 34.0 °F 65% 29.96 in 10.0 mi NW 15.0 mph - N/A   Clear
7:54 AM 42.1 °F 35.7 °F 32.0 °F 67% 29.98 in 10.0 mi NW 11.5 mph - N/A   Clear
8:54 AM 44.1 °F 39.5 °F 34.0 °F 68% 30.00 in 10.0 mi West 8.1 mph - N/A   Clear
9:54 AM 46.9 °F - 33.1 °F 59% 30.01 in 10.0 mi NW 19.6 mph 25.3 mph N/A   Clear
10:54 AM 51.1 °F - 30.9 °F 46% 30.01 in 10.0 mi NW 23.0 mph - N/A   Clear
11:54 AM 55.0 °F - 28.9 °F 37% 30.01 in 10.0 mi WNW 17.3 mph 27.6 mph N/A   Clear
12:54 PM 57.0 °F - 27.0 °F 32% 30.00 in 10.0 mi NW 20.7 mph 28.8 mph N/A   Clear
1:54 PM 57.9 °F - 24.1 °F 27% 29.99 in 10.0 mi NW 23.0 mph 31.1 mph N/A   Clear
2:54 PM 59.0 °F - 24.1 °F 26% 29.96 in 10.0 mi NW 20.7 mph 31.1 mph N/A   Clear
3:54 PM 60.1 °F - 24.1 °F 25% 29.96 in 10.0 mi NW 27.6 mph 38.0 mph N/A   Clear
4:54 PM 57.9 °F - 21.0 °F 24% 29.96 in 10.0 mi WNW 25.3 mph 36.8 mph N/A   Clear
6:54 PM 48.0 °F - 24.1 °F 39% 30.02 in 10.0 mi NW 10.4 mph - N/A   Clear
7:54 PM 45.0 °F 42.6 °F 21.0 °F 39% 30.04 in 10.0 mi WNW 4.6 mph - N/A   Clear
8:54 PM 41.0 °F 34.7 °F 21.9 °F 47% 30.04 in 10.0 mi NW 10.4 mph - N/A   Clear
9:54 PM 37.0 °F 31.0 °F 21.9 °F 54% 30.06 in 10.0 mi NW 8.1 mph - N/A   Clear
10:54 PM 34.0 °F 28.8 °F 19.0 °F 54% 30.07 in 10.0 mi WNW 5.8 mph - N/A   Clear
11:54 PM 32.0 °F 27.5 °F 19.0 °F 59% 30.07 in 10.0 mi WNW 4.6 mph - N/A   Clear